Wind_Speed
31 32 33 32 32 33 34 36 37 38 39 40 41 41 41 41 42 42 43 44 47 51 50 47 47 47 46 47 49 51 54 57 60 62 62 62 61 62 63 63 63 64 63 63 61 59 58 56 54 54 53 51 51 50 47 47 46 45 47 50 52 52 51 51 51 51 50 50 50 49 49 50 49 48 47 46 43 42 41 40 39 38 37 37 37
32 33 33 33 33 34 35 37 38 39 40 41 42 42 43 45 45 45 45 45 45 48 51 49 47 48 47 47 47 47 49 51 54 57 60 62 62 62 63 65 66 66 66 65 65 63 61 59 58 57 56 54 54 53 52 51 48 46 46 48 51 53 53 53 53 53 52 52 52 51 51 52 52 51 51 49 46 44 42 41 40 39 38 38 39
33 33 33 33 34 36 37 38 39 39 40 41 42 43 45 47 48 47 46 45 45 46 49 49 48 49 48 47 46 46 46 46 48 51 55 58 61 62 63 65 68 68 68 68 68 67 65 63 61 61 58 57 57 56 56 55 51 49 49 49 50 52 53 54 54 54 54 53 54 54 53 53 53 52 53 51 49 47 44 42 41 40 40 39 39
34 34 34 34 35 36 37 38 38 39 40 41 42 43 45 47 47 46 44 44 44 45 47 49 49 49 49 48 47 46 45 45 46 47 49 52 56 60 62 65 68 69 70 70 70 70 69 66 64 63 61 60 59 58 57 57 54 52 52 51 51 51 52 53 52 53 54 54 55 56 56 54 53 54 55 54 52 50 47 45 43 42 41 41 41
34 35 35 35 36 37 37 38 38 40 40 41 41 42 44 45 44 42 41 41 42 43 45 48 48 48 49 48 48 47 46 46 46 46 47 49 51 55 59 62 66 69 71 71 71 71 71 69 68 66 64 63 62 60 59 59 56 55 53 51 51 50 50 52 53 52 54 55 56 57 58 57 56 56 56 56 54 53 50 47 45 44 43 42 42
34 34 35 35 36 36 37 38 39 40 40 40 40 41 41 42 41 39 37 37 39 40 43 46 47 47 48 48 48 47 46 47 47 47 47 48 49 51 54 57 62 67 70 72 72 73 72 71 70 69 67 66 65 62 61 61 59 57 55 53 52 53 53 55 55 53 53 54 56 58 59 59 59 58 58 58 57 55 53 50 48 47 44 43 44
33 33 33 34 34 35 36 38 39 39 39 39 39 39 39 39 38 36 34 34 35 37 40 42 43 44 47 49 49 48 47 48 48 48 48 48 49 50 52 54 57 62 67 71 73 73 74 73 72 71 70 69 68 65 63 63 62 60 58 56 55 55 57 57 56 55 54 52 53 56 59 60 61 61 59 60 59 58 56 53 50 49 48 47 45
32 32 32 33 34 34 35 37 38 38 37 37 37 38 37 37 36 34 32 31 33 35 37 39 41 43 45 48 49 49 48 49 49 49 48 48 48 49 52 54 54 56 61 67 72 73 74 73 73 73 73 72 70 68 66 65 64 63 62 60 57 56 57 58 57 57 57 55 53 54 56 59 61 62 61 61 61 59 57 55 53 53 52 50 48
31 32 33 33 34 34 35 36 36 36 36 36 36 36 35 34 33 32 31 30 32 34 36 38 40 42 44 46 47 48 49 49 49 49 49 48 48 48 51 53 54 54 56 61 67 71 73 73 74 74 74 74 73 71 69 68 66 66 65 63 61 57 55 57 59 59 58 58 56 54 54 57 59 61 62 62 61 61 60 58 57 55 54 52 52
31 32 33 34 33 33 34 35 35 35 35 35 35 34 33 32 32 31 30 30 32 34 37 38 40 42 43 45 46 48 49 48 49 48 48 47 47 46 48 50 52 54 54 55 60 65 70 73 74 74 75 75 74 73 72 70 69 68 67 66 65 63 59 57 58 59 59 60 59 55 54 55 56 57 60 62 63 63 62 61 60 57 55 55 54
31 32 33 33 33 33 33 34 34 34 34 34 33 32 32 31 31 30 29 30 32 34 37 39 41 42 44 45 47 48 48 47 47 47 47 46 45 44 44 45 48 51 53 54 55 58 64 70 72 72 74 75 75 74 73 72 71 70 71 70 69 68 66 62 59 58 58 59 59 58 55 54 53 55 58 61 62 63 62 62 62 60 58 58 57
31 32 33 33 33 33 32 32 33 34 34 34 33 32 31 31 30 30 29 29 31 33 37 39 41 43 44 45 46 47 47 46 46 47 46 46 46 45 44 44 45 48 51 53 55 55 57 61 65 68 71 73 74 74 73 72 73 73 73 73 72 71 70 68 64 62 60 58 59 59 58 55 53 55 57 59 60 62 63 62 62 61 60 60 60
31 31 32 33 33 32 32 32 32 33 33 33 32 32 31 31 30 30 29 29 30 32 35 38 41 42 44 45 45 45 46 46 45 46 46 47 47 47 46 46 46 47 49 51 54 55 54 55 57 61 65 68 70 71 71 72 73 74 75 75 74 73 73 71 70 68 66 64 62 61 60 59 56 55 56 57 59 61 63 63 62 62 61 61 62
30 31 31 32 32 31 31 31 32 32 33 32 32 32 31 31 30 30 30 30 30 31 33 36 39 42 43 44 44 43 44 45 45 45 45 46 46 46 46 45 45 46 47 49 51 53 54 53 53 53 56 59 63 65 68 70 71 73 75 76 76 75 74 74 73 72 71 69 67 65 62 61 60 57 56 57 59 60 61 62 61 61 61 62 62
29 30 30 31 31 31 31 31 31 32 32 32 31 31 31 31 31 30 30 30 30 30 31 33 36 39 42 43 43 43 44 45 46 46 45 44 44 44 44 43 42 43 44 45 47 49 51 52 52 51 52 53 55 58 62 66 69 71 73 75 76 76 76 75 74 74 73 72 71 69 66 64 63 61 58 57 59 59 58 59 59 59 59 59 60
28 29 30 30 31 31 30 30 31 31 31 31 30 30 30 31 31 31 30 30 30 30 31 31 33 36 39 42 43 43 43 44 45 46 46 44 43 42 42 41 40 40 40 42 44 46 48 49 50 51 51 51 52 53 55 59 64 68 70 72 74 76 77 76 75 75 74 73 72 72 70 69 67 66 63 61 61 61 60 59 58 57 58 58 57
27 28 30 30 30 30 30 30 30 30 30 30 29 29 30 31 31 30 30 30 30 30 30 31 32 33 35 39 42 43 44 44 45 46 46 45 42 41 41 40 38 38 38 39 41 42 45 47 49 50 51 51 52 52 52 54 57 61 66 69 72 74 76 76 77 77 75 75 74 73 73 72 70 69 68 66 65 65 65 62 60 59 61 61 60
27 28 29 30 30 30 30 30 30 30 30 29 28 29 30 31 31 30 29 29 29 29 29 30 31 32 33 35 38 41 43 45 45 45 45 45 44 42 41 41 39 37 37 38 39 40 42 44 47 49 49 50 51 52 53 53 53 55 59 63 67 70 72 74 76 77 76 76 75 75 75 74 73 71 70 69 68 68 69 67 64 64 65 64 61
28 29 29 29 29 29 29 30 30 30 29 28 27 28 30 30 30 29 29 29 28 28 28 28 28 29 31 32 34 37 40 43 46 47 46 46 46 45 43 42 40 39 37 37 38 39 40 41 44 46 48 50 52 53 54 54 53 52 54 56 58 62 65 69 72 74 75 76 75 75 75 75 75 73 71 70 70 70 70 69 68 66 66 65 63
28 29 29 28 28 28 29 29 30 30 29 28 28 28 29 29 29 29 28 28 28 28 28 28 28 28 29 30 32 34 36 40 43 46 48 48 48 47 45 44 43 41 39 38 37 38 39 40 41 44 46 49 52 53 54 54 53 52 52 51 51 53 56 61 64 67 71 74 75 75 75 75 75 74 72 71 69 70 70 69 68 66 65 65 64
29 29 28 27 27 28 28 29 29 29 28 27 28 29 29 29 29 28 28 28 27 28 28 28 29 29 29 30 31 32 34 36 39 43 46 48 50 50 48 46 45 43 41 40 38 37 38 39 41 42 44 45 47 50 52 53 53 53 53 51 51 52 54 56 57 59 63 67 71 73 74 74 74 73 72 70 68 68 70 70 68 65 65 66 65
29 28 27 26 26 27 28 28 28 28 27 27 28 29 28 28 28 28 27 27 27 27 27 28 29 30 31 32 33 33 34 35 37 40 43 46 49 51 51 49 47 45 43 42 41 40 39 39 40 41 41 42 44 47 49 52 53 53 53 54 55 56 57 57 56 56 58 60 64 67 69 71 72 72 72 70 67 64 65 67 69 67 65 66 66
28 27 26 25 26 27 27 27 27 26 26 27 28 28 27 27 27 26 26 26 26 26 28 29 31 32 33 34 35 35 35 35 35 36 39 42 46 49 51 50 48 46 45 44 44 42 41 41 41 41 41 42 44 46 48 50 52 53 54 55 56 57 58 58 58 57 57 58 60 62 63 66 68 69 70 71 70 68 64 63 65 67 66 66 66
27 26 25 25 25 26 26 26 26 25 26 26 27 27 26 26 25 25 25 25 25 26 28 30 31 33 34 35 35 35 34 34 33 32 33 37 40 44 47 48 48 47 46 45 44 44 43 44 44 44 44 45 45 47 49 51 52 54 55 56 57 59 60 59 59 59 59 59 59 60 60 61 63 64 67 69 72 73 70 65 64 65 65 65 65
27 26 25 24 25 25 25 25 25 24 25 25 26 25 25 24 24 24 24 25 26 27 28 30 31 32 32 33 33 32 31 29 28 27 27 29 32 35 39 42 43 44 44 43 43 44 44 45 46 46 48 49 49 50 51 52 53 55 56 58 59 61 61 61 62 61 60 59 59 60 60 60 60 61 63 65 68 72 73 70 67 66 65 64 64
26 26 24 24 24 25 24 24 23 24 24 24 24 24 23 23 22 23 24 25 27 28 29 29 30 29 28 28 28 28 28 27 25 24 24 24 24 26 29 33 36 38 39 40 41 42 43 44 46 48 49 51 52 53 54 54 55 56 58 59 61 62 64 64 65 65 64 62 61 61 60 60 59 59 60 61 64 68 69 70 70 69 67 66 66
26 25 24 24 24 24 23 22 22 23 24 23 23 23 22 21 21 22 24 26 27 28 28 27 27 26 23 23 24 24 24 24 23 23 22 22 21 22 23 26 29 31 33 35 37 38 40 42 44 46 48 50 53 55 57 58 60 61 62 63 64 65 66 68 69 69 68 66 64 62 61 60 60 60 59 58 60 63 66 67 69 68 67 66 67
25 24 24 23 23 23 21 21 21 22 23 23 22 21 20 20 20 21 23 24 26 27 26 24 24 23 21 21 22 22 21 21 20 19 20 20 19 19 20 21 23 25 27 29 31 33 35 36 39 41 43 46 49 52 55 58 60 62 64 66 67 68 69 70 71 71 71 69 67 65 62 60 59 59 59 58 56 58 61 65 67 68 69 67 66
24 24 23 23 23 22 21 20 20 21 22 22 21 20 19 19 20 21 22 23 24 25 23 20 20 21 20 20 20 20 20 19 17 16 16 17 16 14 14 15 15 17 19 21 24 26 28 29 31 33 35 39 42 45 47 49 50 52 54 57 61 66 69 71 71 72 72 71 69 67 63 60 58 57 57 56 55 53 56 61 65 66 66 64 65
23 22 22 22 22 21 20 19 19 20 20 21 21 19 17 17 19 20 22 23 24 24 22 19 17 17 19 19 19 19 20 18 15 13 12 11 10 8 8 9 9 10 11 13 16 18 20 21 23 27 32 36 39 40 42 43 44 46 49 51 54 57 61 64 67 69 69 69 67 65 62 59 57 55 54 53 52 50 51 55 59 60 60 60 62
21 21 21 21 21 20 20 19 18 19 19 20 19 18 17 17 18 19 21 22 23 24 23 20 17 16 16 17 18 19 19 17 13 8 6 6 5 4 3 3 3 3 4 7 10 13 15 16 19 24 32 35 35 34 35 36 37 38 43 47 50 51 53 55 58 59 60 59 58 57 55 53 52 51 50 49 48 47 47 49 52 54 58 61 63
20 20 20 20 20 20 19 18 18 18 18 19 19 17 16 16 17 18 19 21 22 24 24 21 18 16 15 14 16 17 17 16 11 5 4 3 2 2 2 2 2 4 6 7 10 12 13 15 18 23 28 30 28 26 26 28 28 28 30 32 36 41 44 44 44 44 45 44 44 45 46 46 45 44 44 45 45 46 46 46 48 51 56 59 62
18 19 19 19 20 20 19 17 17 17 17 18 18 17 16 16 16 17 18 20 21 23 24 22 20 18 16 14 15 16 16 15 11 5 6 5 5 6 7 5 4 6 7 8 10 11 13 16 20 21 21 21 20 21 21 21 21 20 19 19 21 25 31 32 33 34 35 35 35 35 37 39 41 42 42 43 44 45 45 46 49 52 56 58 60
17 18 18 19 19 19 18 17 16 16 17 18 18 18 16 16 15 16 17 18 20 22 23 23 21 20 18 16 16 15 14 14 13 9 10 11 11 12 12 11 9 9 10 11 12 13 15 18 19 17 16 17 16 14 15 15 14 14 14 14 14 17 23 28 31 35 36 36 37 37 38 39 39 39 40 44 47 47 47 49 50 51 54 58 60
17 17 18 19 19 19 18 16 15 16 16 17 18 18 17 16 16 16 16 18 19 20 22 23 22 22 20 17 15 14 13 13 13 11 10 12 14 15 15 14 12 12 13 13 14 15 17 18 17 14 14 15 13 8 5 4 4 6 9 13 14 16 21 25 28 30 32 34 37 40 42 40 37 36 39 45 51 52 50 50 50 50 51 55 57
17 17 18 18 19 19 18 16 15 15 15 16 17 17 17 16 16 16 17 17 18 19 21 22 22 22 21 19 17 16 15 15 14 12 10 9 10 12 13 13 13 13 14 15 16 17 18 17 14 12 12 13 11 7 6 6 3 7 10 13 16 17 20 23 25 24 25 29 33 38 40 37 35 36 39 40 43 47 48 49 50 52 53 54 55
17 17 18 18 19 19 19 17 15 15 15 15 16 16 16 16 16 16 16 17 17 18 19 20 20 20 20 20 19 19 19 18 16 13 11 9 8 7 8 10 11 12 13 15 16 17 15 12 10 9 9 10 10 9 8 8 6 3 9 13 15 14 15 19 22 22 23 25 27 31 38 41 41 43 44 40 37 40 44 46 48 50 51 52 52
18 17 17 18 18 19 19 18 16 15 15 15 15 15 16 15 15 15 15 15 16 17 17 18 18 18 18 18 18 18 18 16 15 14 13 11 11 10 9 8 8 9 10 11 12 12 11 9 8 8 8 8 7 7 7 6 6 5 4 5 7 5 4 8 15 19 20 17 13 16 27 39 44 47 47 45 42 41 41 42 42 43 44 45 46
18 17 17 17 17 18 19 19 18 16 15 15 15 15 15 15 15 14 14 15 15 16 16 16 17 17 17 16 16 16 16 16 16 16 16 14 13 11 10 9 8 8 8 9 9 10 10 10 10 9 9 8 6 4 4 5 5 5 6 4 2 2 3 1 1 4 8 9 7 5 9 19 28 31 33 34 35 35 35 36 37 38 39 40 42
18 17 17 17 17 17 18 19 18 17 16 16 16 16 16 15 15 14 14 14 14 15 15 15 15 15 15 16 15 15 15 16 16 16 16 15 14 13 12 11 10 10 9 9 10 11 11 12 12 12 11 10 9 7 5 5 6 6 6 6 5 5 4 3 2 3 2 3 6 7 7 7 10 14 16 17 19 21 24 26 28 30 32 34 36
17 17 17 17 17 17 18 18 19 18 18 17 17 17 17 16 16 15 15 14 15 15 15 15 15 14 15 15 15 14 14 14 15 15 15 14 14 14 14 13 13 13 12 12 12 13 14 14 15 16 16 15 14 13 11 10 10 10 10 9 8 8 7 7 5 4 5 5 5 6 8 9 10 12 14 15 16 17 19 21 23 25 27 28 30
16 16 16 17 17 17 18 18 19 19 18 18 18 18 18 17 17 17 16 15 15 15 15 15 15 15 14 14 14 14 13 13 13 14 14 14 14 14 14 14 15 15 15 15 15 15 15 16 16 17 18 18 17 16 15 14 13 13 12 12 12 11 10 10 10 10 9 9 8 9 9 10 11 12 14 15 16 17 19 20 22 23 25 27 28
16 16 16 16 17 17 18 19 19 19 19 19 19 19 19 18 18 18 17 17 16 16 16 16 16 16 15 15 15 15 15 14 13 13 13 14 14 14 14 14 15 15 16 16 16 16 16 16 16 16 17 18 18 17 16 16 15 15 14 14 13 14 13 12 12 12 12 12 12 12 12 12 13 14 14 16 17 18 20 21 23 24 26 27 29
17 17 16 16 17 17 18 19 19 20 20 20 20 20 20 20 19 19 18 18 17 17 17 17 17 17 17 17 16 16 16 16 16 15 14 14 14 14 14 14 14 15 15 15 16 16 16 16 17 17 16 16 17 17 16 15 15 15 15 14 14 14 14 14 14 14 13 13 13 13 14 14 14 15 15 16 18 19 20 22 23 25 27 28 30
18 17 17 17 17 17 18 18 19 19 20 20 20 21 21 21 20 20 20 19 19 18 17 17 17 18 18 18 18 18 18 18 18 18 17 16 15 15 15 15 15 15 15 15 15 16 16 16 16 16 16 15 15 15 15 15 14 13 13 13 13 13 13 13 13 13 14 14 14 14 15 15 16 17 17 18 19 20 22 23 24 26 27 29 31
19 18 18 18 18 18 18 18 19 19 19 20 20 21 21 21 21 21 21 20 20 19 19 18 18 18 18 18 18 18 18 18 19 19 19 18 18 17 16 16 16 16 17 17 16 16 16 16 16 15 15 14 14 14 13 13 13 13 13 13 12 13 13 13 13 14 14 15 16 16 17 18 19 19 20 21 23 24 25 26 27 29 30 32 33
20 19 19 19 19 19 19 19 19 19 19 20 20 21 21 21 21 21 21 21 21 21 20 19 19 19 19 19 19 19 19 19 19 19 19 19 19 19 18 18 17 17 18 18 18 18 17 17 16 15 15 14 14 13 13 13 13 13 13 13 14 14 14 15 15 16 16 17 18 19 20 21 22 23 24 26 27 28 29 31 32 33 35 37 38
21 20 19 19 20 20 20 20 20 20 20 20 20 21 21 21 21 21 21 21 21 21 21 21 21 20 20 20 19 19 19 19 19 19 19 19 20 20 20 20 19 19 19 19 19 19 18 18 17 17 16 15 15 14 14 14 14 14 14 14 15 16 16 17 17 18 19 20 21 22 23 24 25 27 28 29 31 32 33 35 36 37 39 40 42
23 22 21 20 20 21 21 21 21 21 21 21 21 22 22 22 22 22 22 22 22 22 22 22 22 22 21 21 21 21 20 20 20 20 20 20 20 20 21 21 21 21 21 21 20 20 19 19 19 18 18 17 17 16 15 15 15 15 16 16 16 17 18 18 19 19 20 21 22 23 25 26 27 29 30 32 33 35 36 37 39 40 42 43 44
24 23 22 21 21 21 21 22 22 22 22 22 23 23 23 23 23 23 23 23 23 23 23 23 23 23 23 23 23 22 22 22 22 21 21 22 22 22 22 22 22 22 22 22 22 22 21 20 20 20 19 19 18 18 18 17 17 17 17 18 18 18 19 20 20 21 22 23 25 26 27 29 30 31 33 34 36 37 38 39 41 42 43 44 45
25 23 22 21 21 21 22 22 22 23 23 24 24 24 24 24 25 25 25 24 24 25 25 25 25 25 25 24 24 24 24 24 23 23 23 23 23 23 24 24 24 23 23 23 23 23 23 23 22 22 21 21 20 20 20 19 20 20 20 20 20 20 21 22 23 24 25 26 27 29 30 31 33 34 35 37 38 39 40 41 42 42 43 43 43
Wind_Direction
288 287 287 288 290 292 293 292 292 291 291 291 291 291 290 287 283 279 274 266 256 251 251 251 249 250 252 254 254 254 253 252 251 249 246 244 241 238 237 238 238 239 241 242 241 241 241 243 244 245 244 244 244 247 249 247 246 247 246 241 239 239 240 241 241 239 238 240 242 243 245 248 249 250 250 250 249 250 251 253 256 257 259 261 262
288 288 289 292 294 294 293 292 291 292 292 292 293 293 292 290 288 283 276 269 260 251 248 249 249 248 249 251 252 253 254 254 254 252 250 248 245 241 237 237 237 236 237 239 241 240 240 240 241 243 244 244 244 245 247 248 247 247 246 244 241 240 240 241 242 241 238 238 240 241 242 245 248 249 250 250 250 249 250 251 253 255 256 258 260
288 289 292 294 294 293 291 291 291 292 293 294 295 295 294 292 289 285 278 268 261 251 245 245 248 248 248 249 250 251 253 254 255 255 254 252 250 246 241 238 237 236 236 237 239 240 240 239 239 241 242 243 244 244 246 248 248 247 247 247 244 242 241 242 243 242 240 237 238 240 241 243 246 248 249 250 250 250 250 250 251 252 254 255 257
289 291 293 293 292 291 291 292 293 294 295 296 296 295 295 294 291 286 279 268 259 251 244 242 245 247 247 248 250 252 254 256 256 256 256 255 253 251 247 242 239 238 237 236 237 238 240 239 239 239 240 241 242 243 245 246 247 248 248 248 247 244 242 243 245 244 242 239 238 240 241 241 243 246 248 249 250 250 250 250 250 251 253 255 255
288 291 292 292 291 292 293 294 295 296 296 296 296 296 296 295 293 289 280 268 257 249 242 241 244 246 247 248 250 253 255 257 257 257 256 256 255 254 252 248 244 241 239 238 237 237 238 239 239 239 239 240 241 241 243 244 245 246 247 248 249 246 243 244 245 245 244 242 240 241 242 242 242 244 246 248 249 250 250 250 251 251 251 254 255
287 288 289 290 291 293 295 296 296 296 296 296 297 298 298 297 297 292 282 269 256 247 242 240 243 246 246 247 249 252 255 257 258 258 257 256 255 255 253 251 248 244 242 240 239 238 238 238 239 239 239 239 240 240 241 243 244 244 245 246 248 247 246 246 245 245 246 244 242 241 242 243 243 243 244 247 249 250 251 251 252 252 252 253 254
284 285 287 289 291 293 294 294 295 294 295 296 297 298 299 299 299 296 285 271 257 247 242 241 243 246 246 247 248 251 255 258 259 258 257 256 255 255 254 253 251 248 245 243 241 240 239 238 238 239 239 239 240 239 240 241 242 243 243 243 246 248 247 247 247 247 247 246 245 243 241 242 243 243 243 245 248 249 251 252 253 254 254 253 253
282 285 288 289 290 291 291 291 292 292 294 295 296 298 299 300 300 298 289 275 260 249 243 243 245 248 248 247 248 250 254 258 259 259 258 257 256 255 254 253 253 251 248 245 244 243 242 240 239 238 239 239 239 239 239 239 241 242 243 242 243 247 247 247 247 247 246 247 247 246 242 241 242 243 242 244 247 249 251 252 252 253 254 255 255
284 287 288 289 289 289 289 289 289 291 292 293 295 298 301 301 300 298 292 279 265 254 248 246 248 250 250 250 250 251 255 258 260 259 258 258 257 255 253 253 252 252 251 248 247 246 245 243 241 240 239 239 239 239 239 239 239 241 243 242 242 244 246 247 247 247 247 247 248 249 245 241 241 241 241 243 245 247 249 251 251 252 254 256 257
286 287 287 287 288 287 287 288 289 291 292 293 296 298 300 301 300 298 293 283 272 261 254 251 251 252 253 253 253 254 257 259 259 257 257 257 257 255 254 253 252 252 253 252 250 248 246 245 244 242 241 240 241 240 239 239 239 239 241 242 242 242 243 245 246 247 248 247 247 249 247 243 242 242 241 243 244 246 248 249 251 253 253 255 256
285 286 286 287 288 287 287 288 290 292 293 294 296 298 299 301 301 299 295 287 277 268 261 257 255 254 255 255 255 256 258 258 256 255 255 255 257 256 255 254 254 253 253 253 253 251 249 246 246 246 244 242 242 242 241 240 239 239 240 241 242 242 242 244 244 244 246 246 245 246 248 246 245 245 243 243 245 246 248 249 250 252 253 255 256
284 285 286 287 288 288 288 290 291 292 294 294 296 298 299 300 301 300 297 290 282 274 267 262 258 257 257 257 258 259 259 257 255 254 254 254 256 256 256 256 256 255 254 253 253 253 252 249 248 248 247 245 244 244 243 242 240 240 240 240 241 242 243 244 243 242 244 244 243 244 247 247 247 246 245 245 246 247 249 249 250 251 252 255 257
284 286 287 288 288 289 290 291 292 293 293 294 296 298 299 300 301 300 298 294 287 280 273 267 263 260 259 260 261 260 260 258 255 254 254 255 256 256 257 258 258 257 255 253 252 252 253 252 251 250 250 249 247 247 246 245 243 241 241 240 241 242 243 243 244 244 244 244 244 244 245 246 247 247 246 245 246 247 248 249 250 251 253 254 257
285 286 288 288 289 290 291 291 292 293 293 294 296 297 299 301 301 300 297 294 290 284 278 272 267 264 262 263 263 262 260 259 257 255 254 255 256 257 257 259 260 258 255 253 251 250 251 251 251 251 251 251 250 249 249 248 246 243 242 242 241 242 243 243 244 244 244 244 245 245 244 244 246 247 246 245 245 246 247 248 248 251 254 255 256
286 287 288 289 290 291 292 292 292 293 293 293 295 297 300 302 302 300 298 295 291 287 283 278 273 268 265 265 265 264 262 260 258 258 257 256 256 257 258 261 261 258 255 252 251 249 249 250 250 250 251 251 250 249 249 249 249 246 245 244 243 243 243 244 244 245 245 245 245 246 245 244 244 246 247 246 245 245 246 247 247 249 252 253 255
287 288 289 290 292 293 293 293 292 292 292 293 295 298 301 302 302 300 299 297 294 290 286 282 278 273 269 267 267 266 265 262 260 259 259 257 256 256 258 261 262 259 256 253 251 248 248 249 249 249 250 250 251 250 250 249 249 248 247 246 245 244 244 245 246 245 245 245 245 246 246 245 245 245 245 246 246 246 245 246 247 249 252 253 256
288 289 289 291 293 294 294 293 293 293 292 293 296 300 302 302 301 299 298 297 295 291 288 284 281 278 275 271 269 268 267 265 263 261 260 259 258 257 257 259 260 259 257 254 251 249 248 248 249 249 248 248 249 250 250 250 249 249 248 248 247 246 246 246 247 247 246 246 246 246 246 246 246 245 245 245 246 247 247 247 248 250 252 254 255
290 290 290 292 294 295 295 294 294 293 293 295 299 302 302 301 300 298 298 297 295 293 290 287 283 280 279 276 273 270 268 266 265 264 263 261 260 259 258 258 259 259 257 255 253 250 249 248 249 249 249 248 247 248 249 250 249 248 248 248 248 248 248 248 249 249 248 247 247 247 247 247 247 246 246 246 246 247 249 249 250 252 254 254 255
291 291 291 293 295 296 296 295 295 295 295 298 301 303 302 300 299 298 297 296 296 295 293 291 287 284 281 279 277 274 271 268 266 265 264 263 262 261 259 258 258 259 258 256 255 252 251 250 249 249 249 248 247 246 247 248 248 248 248 248 248 249 249 249 250 251 250 249 249 249 248 249 248 247 247 247 247 248 249 250 251 253 254 255 255
292 292 292 294 296 297 297 297 296 296 297 300 303 303 302 300 299 298 296 295 295 295 295 294 293 290 287 284 281 278 275 272 268 265 264 263 262 261 260 259 258 258 258 257 256 255 253 251 250 249 248 248 248 248 248 249 248 248 249 249 248 249 249 249 249 250 251 250 250 250 250 250 250 250 249 249 249 249 250 250 251 252 254 254 254
292 292 293 295 296 298 298 298 297 297 299 302 304 303 302 300 298 297 296 295 295 296 296 296 296 295 293 291 287 283 279 275 271 267 264 262 261 260 260 259 258 258 258 257 257 256 254 253 251 251 251 251 251 251 252 252 251 250 250 249 249 249 249 249 249 249 250 250 250 250 250 251 251 252 252 252 251 251 250 251 251 252 252 253 254
293 293 295 296 297 298 298 298 297 298 300 303 304 303 302 300 299 297 296 296 297 298 299 299 299 299 298 296 293 289 285 280 275 269 265 261 259 258 258 258 257 257 257 256 256 256 255 255 255 255 255 254 253 253 253 253 253 252 251 251 250 250 249 249 248 248 248 249 250 250 250 250 250 251 252 253 253 252 252 251 251 251 252 253 254
294 295 297 298 298 298 298 297 297 298 301 303 303 303 302 300 299 298 298 299 301 303 304 304 303 302 301 299 297 294 290 285 281 275 268 262 258 255 255 255 255 255 255 255 255 255 256 257 258 258 258 257 256 255 255 254 254 254 253 252 252 252 252 251 250 249 248 248 249 249 249 250 250 250 250 251 251 252 253 253 251 251 252 253 254
296 297 298 298 298 298 298 297 297 299 302 303 303 303 302 302 301 301 301 303 305 308 309 308 306 305 303 301 299 297 294 291 287 281 273 265 260 256 253 252 252 252 253 253 254 255 255 256 256 257 258 258 259 258 258 257 257 256 255 255 254 254 254 253 252 252 250 249 249 249 249 250 250 249 249 249 250 251 253 254 253 252 252 252 254
296 296 297 297 297 298 297 297 298 300 303 304 304 304 304 304 305 306 307 308 311 313 314 312 310 307 305 304 304 303 301 298 293 285 275 267 261 257 253 251 250 249 250 251 253 254 255 256 257 257 258 259 260 260 260 260 259 259 258 258 257 256 256 255 255 254 252 251 251 250 250 250 250 249 248 248 249 250 252 253 253 253 253 253 254
294 294 295 296 296 297 297 298 300 302 304 305 305 305 306 307 309 312 314 315 317 318 319 317 313 310 308 309 309 309 307 304 299 290 277 266 259 254 250 248 246 246 247 249 251 253 255 256 257 258 259 260 261 262 262 262 261 261 260 259 259 258 258 257 256 255 254 252 251 250 250 250 250 250 250 249 248 249 250 251 252 253 255 256 257
292 292 294 295 296 297 298 299 301 303 305 306 306 307 308 310 315 318 320 321 322 323 324 321 315 311 312 314 313 313 312 308 303 294 282 267 256 249 243 240 240 241 243 246 249 252 254 256 258 260 261 262 263 264 264 264 264 263 262 260 259 258 257 257 257 256 255 254 253 252 251 251 251 250 250 250 250 249 249 249 250 252 253 255 257
291 291 293 294 296 297 298 300 302 304 305 307 308 308 310 314 319 323 324 326 326 327 329 326 317 312 316 319 318 318 319 315 305 294 281 267 255 247 241 236 235 237 241 245 249 253 256 258 260 262 262 263 264 265 265 265 265 264 262 260 258 256 255 254 254 254 254 254 254 253 252 252 251 251 250 251 251 251 250 248 249 250 251 253 256
290 292 293 293 294 296 298 299 301 303 306 308 308 309 312 317 322 325 328 330 332 332 334 332 321 314 317 321 322 323 324 319 306 290 275 262 252 243 236 231 230 232 237 243 248 253 256 258 261 264 266 265 264 263 263 263 263 263 263 261 258 255 252 251 251 251 251 252 252 253 253 253 252 252 251 251 252 253 252 249 248 249 252 254 256
289 291 292 292 293 295 296 298 301 303 306 308 308 309 314 320 324 328 332 335 337 340 340 338 330 322 319 322 325 327 328 323 309 290 269 250 234 218 209 210 215 221 231 241 249 255 260 267 276 282 280 274 268 265 264 263 263 263 262 260 258 255 251 249 248 248 248 248 249 250 252 252 252 252 251 250 250 253 254 251 249 248 250 252 253
289 290 290 290 291 293 294 296 299 303 306 308 309 311 316 323 327 331 336 339 343 347 346 342 336 331 325 324 327 329 329 328 317 292 249 210 189 185 199 216 223 246 273 278 278 279 281 287 296 299 293 285 279 275 271 265 264 265 263 259 257 254 250 247 246 246 247 247 248 249 250 250 250 249 249 248 249 251 252 250 248 247 246 247 249
289 289 289 289 290 291 292 294 297 302 306 309 310 311 316 323 328 332 337 343 349 353 352 346 342 340 336 331 331 332 333 332 328 298 218 192 189 226 274 305 340 346 330 304 292 287 284 289 300 305 302 294 284 278 272 264 265 272 271 262 255 251 247 245 245 245 245 245 245 245 245 245 245 245 245 245 247 249 247 244 242 244 245 247 249
287 288 289 289 289 288 289 292 296 302 306 309 310 312 316 323 329 333 338 345 352 356 357 354 350 347 345 340 337 336 335 334 328 287 231 241 271 276 281 293 316 327 312 290 286 287 291 301 308 311 314 309 293 282 277 268 266 274 276 266 258 251 242 238 240 238 233 230 233 237 238 237 237 237 239 242 244 244 242 239 238 239 243 247 250
287 288 289 289 288 286 287 290 295 301 306 309 310 313 316 321 328 333 338 344 351 356 359 360 358 355 351 344 336 333 333 333 326 297 256 250 261 274 284 288 291 301 303 297 296 299 306 313 313 308 316 328 324 303 287 275 266 270 271 262 252 244 236 234 234 231 225 219 218 219 222 224 227 231 238 243 245 243 241 240 240 240 241 245 249
286 288 288 288 286 285 285 288 294 299 304 308 310 313 316 319 325 331 337 342 348 353 357 0 3 2 358 350 341 335 333 333 328 312 283 260 255 264 277 284 287 298 306 305 305 306 307 313 315 305 306 327 343 345 330 307 254 234 245 250 244 235 232 234 234 232 232 231 227 222 219 217 219 227 235 237 237 237 236 237 239 241 243 246 250
285 287 287 287 285 284 285 287 291 296 300 305 308 311 314 318 322 328 334 338 343 349 353 357 2 4 3 0 357 355 353 349 344 334 318 293 270 266 276 288 296 303 307 305 307 308 306 307 314 314 313 326 342 354 3 12 65 147 177 210 224 219 216 223 231 232 228 224 222 224 225 219 214 222 228 224 221 224 229 232 236 240 244 247 250
284 285 286 286 285 284 284 284 287 291 295 300 304 306 310 314 319 324 329 333 337 341 346 351 357 1 5 7 8 9 9 5 359 355 348 338 326 316 313 314 312 309 307 306 310 314 312 310 315 322 325 335 347 353 355 357 7 86 143 168 183 182 175 186 201 202 190 180 181 195 209 212 213 220 226 223 218 222 228 232 236 238 241 244 247
283 284 286 286 285 284 283 283 285 287 291 295 298 301 304 308 312 317 322 325 329 332 336 342 347 354 1 7 11 13 15 15 14 16 18 15 11 9 1 348 335 324 317 318 323 328 331 332 336 341 344 349 356 355 349 351 356 4 45 128 160 164 139 161 182 186 181 175 168 174 189 199 207 216 223 226 227 228 230 234 236 238 241 245 247
281 283 285 286 286 285 284 283 284 285 287 290 293 295 297 300 304 308 313 316 319 322 325 330 337 343 351 358 4 8 11 14 18 23 25 25 25 25 18 7 1 355 347 343 345 348 352 357 1 5 9 12 16 7 339 333 340 344 351 9 19 346 352 14 203 196 191 206 236 243 197 195 204 212 218 223 226 228 230 234 238 240 244 248 252
281 282 284 286 286 286 285 284 284 285 286 288 289 290 291 293 296 299 303 307 310 313 316 320 326 332 337 344 351 356 1 5 9 12 15 16 16 16 13 9 6 5 2 359 357 356 359 2 5 9 14 17 19 20 12 357 352 349 346 350 353 345 338 335 317 305 287 251 257 272 274 249 234 233 235 237 238 239 241 244 247 249 251 253 255
283 284 284 286 286 286 285 284 284 284 285 286 287 287 288 289 290 291 294 297 300 304 308 311 316 321 326 331 337 343 347 351 353 355 357 359 359 359 359 358 357 357 357 358 359 357 356 357 358 359 4 9 12 14 15 13 8 5 2 2 2 359 352 350 348 337 322 310 294 281 276 272 268 265 264 264 265 265 264 263 263 264 264 264 265
289 288 287 286 286 287 287 285 284 284 284 285 285 285 285 286 287 287 288 290 292 296 299 303 307 311 315 319 324 328 332 335 337 338 339 340 341 342 343 343 343 344 344 346 348 349 349 349 350 349 350 354 358 2 5 6 5 5 4 2 2 3 1 357 355 353 347 337 326 314 303 293 288 286 285 285 284 283 281 280 278 277 276 275 274
293 292 291 290 288 288 288 287 285 285 284 284 285 285 285 285 285 285 286 287 288 291 294 297 300 303 306 309 312 315 318 320 322 324 324 324 324 326 327 328 329 330 332 333 334 336 335 336 337 338 338 339 342 345 347 350 351 352 353 353 352 352 354 353 350 346 343 339 333 326 320 315 310 305 303 302 299 297 294 292 290 288 287 286 284
294 295 295 294 292 291 290 289 287 286 285 284 284 284 285 284 285 285 285 285 286 288 290 293 296 299 301 303 305 307 309 311 313 314 315 315 315 316 317 318 320 321 323 323 324 326 327 327 327 327 327 327 328 329 332 335 336 338 339 341 343 343 342 342 342 340 337 334 330 327 323 319 316 313 310 306 303 300 298 296 295 293 292 290 289
293 294 294 295 295 294 292 291 289 287 286 285 284 284 284 284 284 284 284 285 285 286 287 289 292 294 297 300 302 303 305 307 308 310 311 312 312 312 313 314 315 316 318 319 318 319 320 321 320 320 321 320 319 319 320 323 325 327 328 329 331 332 332 331 329 329 327 326 323 321 319 316 313 311 309 306 304 301 299 297 296 295 293 293 292
291 292 293 294 295 294 293 292 290 288 287 285 284 284 284 284 284 284 284 284 284 284 285 286 288 290 293 295 298 300 302 304 305 307 309 310 311 311 311 312 313 314 315 316 317 316 316 316 315 315 315 314 314 314 314 315 317 320 321 321 321 320 320 320 319 318 316 316 315 313 312 311 310 308 307 305 304 303 301 300 299 298 297 296 295
291 291 292 293 293 293 293 292 291 290 288 286 285 284 283 283 284 284 284 283 284 283 284 284 285 286 288 291 293 296 298 300 301 303 304 306 307 308 308 309 310 312 313 314 315 315 314 313 313 312 311 310 309 309 309 309 310 310 311 312 313 312 312 311 311 310 310 310 310 310 309 309 308 308 307 306 305 305 304 303 302 301 300 299 298
289 290 291 292 292 292 291 291 290 289 288 286 285 283 282 282 282 282 282 282 282 282 282 282 283 283 285 286 288 290 292 294 295 297 299 300 301 303 304 306 307 309 311 312 312 313 312 312 311 310 308 307 306 304 303 304 304 304 305 305 306 307 307 307 308 308 309 309 309 309 309 309 308 308 307 307 306 305 305 304 303 303 302 301 301
286 287 289 291 291 291 291 291 290 289 288 287 285 284 282 281 280 280 280 280 281 281 280 280 280 281 282 283 284 286 287 289 290 291 293 295 295 296 298 301 303 305 307 309 310 310 310 309 308 307 306 304 303 302 301 301 300 300 301 302 301 302 303 303 304 305 305 306 307 307 307 307 308 307 307 308 307 307 307 306 306 306 305 304 304
281 283 286 287 289 289 291 291 291 291 290 288 287 286 284 283 281 281 280 279 279 279 279 279 279 280 280 280 281 282 283 285 286 288 289 290 292 293 294 296 298 301 303 305 307 308 308 308 306 305 304 303 301 300 300 300 299 298 298 298 298 299 300 301 303 304 305 306 307 308 309 309 310 311 311 312 312 311 311 310 310 309 309 308 307
276 279 282 285 286 288 290 292 292 292 291 290 288 287 286 285 284 283 282 281 280 279 279 278 278 279 279 279 280 281 282 282 284 285 287 288 289 291 292 294 295 296 299 301 303 305 306 307 306 305 303 301 300 299 298 297 297 298 298 298 299 300 302 303 305 307 308 309 310 311 312 313 314 314 315 315 315 314 314 313 312 312 311 310 309
Height
5691 5690 5689 5688 5687 5686 5685 5684 5682 5681 5681 5680 5679 5679 5679 5679 5678 5678 5678 5678 5678 5679 5681 5682 5683 5684 5684 5685 5686 5687 5688 5689 5691 5692 5695 5697 5700 5703 5705 5708 5711 5714 5716 5718 5721 5723 5724 5728 5730 5731 5733 5736 5738 5739 5740 5741 5743 5744 5745 5747 5748 5750 5752 5753 5756 5759 5760 5761 5762 5763 5763 5763 5764 5766 5768 5770 5772 5773 5774 5775 5776 5777 5779 5779 5779
5686 5685 5684 5683 5683 5682 5680 5679 5678 5677 5676 5675 5673 5673 5672 5671 5670 5670 5669 5669 5670 5671 5673 5674 5676 5677 5678 5679 5680 5681 5682 5683 5684 5685 5687 5689 5691 5694 5697 5699 5701 5705 5708 5710 5712 5714 5717 5720 5722 5724 5726 5729 5732 5733 5734 5736 5738 5739 5739 5740 5742 5744 5746 5747 5749 5752 5755 5757 5757 5758 5758 5757 5758 5760 5761 5763 5765 5767 5769 5770 5771 5773 5774 5774 5775
5681 5680 5679 5679 5678 5677 5676 5675 5674 5673 5671 5670 5668 5667 5666 5664 5662 5661 5660 5660 5661 5663 5665 5667 5669 5671 5672 5674 5675 5676 5677 5678 5679 5680 5681 5682 5683 5686 5688 5690 5692 5695 5699 5701 5703 5705 5708 5712 5714 5716 5720 5723 5725 5727 5728 5729 5731 5733 5733 5734 5735 5738 5740 5741 5743 5745 5748 5751 5752 5752 5753 5752 5753 5755 5755 5757 5759 5761 5763 5765 5766 5767 5769 5770 5770
5677 5676 5675 5675 5673 5672 5671 5670 5669 5667 5666 5665 5664 5662 5660 5658 5655 5653 5652 5652 5652 5655 5657 5660 5663 5665 5666 5668 5669 5670 5671 5672 5673 5674 5674 5675 5677 5678 5680 5682 5683 5686 5689 5692 5695 5697 5699 5703 5706 5708 5712 5715 5717 5721 5722 5722 5723 5725 5728 5729 5730 5732 5735 5736 5737 5740 5742 5745 5747 5747 5747 5748 5748 5749 5749 5751 5753 5754 5756 5758 5760 5762 5763 5764 5765
5673 5672 5671 5670 5669 5668 5666 5665 5663 5662 5661 5660 5658 5657 5654 5651 5649 5647 5645 5645 5646 5648 5651 5654 5656 5658 5660 5662 5663 5665 5665 5666 5667 5667 5668 5669 5670 5671 5672 5674 5675 5677 5680 5683 5685 5688 5691 5694 5697 5700 5703 5705 5709 5714 5716 5715 5715 5718 5722 5724 5724 5726 5729 5729 5730 5733 5735 5738 5742 5742 5742 5743 5743 5744 5744 5745 5747 5748 5750 5752 5754 5755 5758 5759 5760
5671 5670 5669 5667 5665 5664 5662 5661 5659 5658 5656 5655 5653 5651 5648 5645 5643 5641 5639 5639 5640 5642 5645 5648 5650 5652 5654 5656 5657 5659 5659 5660 5660 5661 5661 5662 5663 5664 5665 5666 5667 5669 5672 5674 5676 5679 5682 5685 5688 5691 5694 5697 5700 5705 5708 5708 5709 5712 5715 5717 5718 5720 5722 5722 5724 5727 5728 5731 5735 5736 5737 5738 5738 5739 5739 5739 5741 5742 5744 5746 5748 5750 5752 5753 5754
5669 5668 5667 5665 5663 5661 5660 5658 5656 5654 5652 5651 5649 5646 5643 5640 5638 5636 5634 5634 5635 5637 5639 5642 5645 5647 5648 5650 5651 5653 5653 5654 5654 5654 5654 5655 5656 5657 5658 5659 5660 5662 5664 5666 5668 5670 5673 5677 5680 5682 5685 5688 5691 5696 5700 5701 5702 5705 5708 5710 5712 5713 5714 5716 5719 5720 5721 5724 5727 5729 5730 5732 5732 5733 5734 5734 5734 5737 5739 5741 5743 5744 5745 5746 5748
5666 5665 5664 5662 5661 5659 5658 5656 5654 5652 5650 5647 5645 5642 5639 5637 5634 5632 5630 5630 5631 5632 5634 5637 5639 5641 5642 5644 5645 5646 5647 5647 5647 5647 5648 5648 5649 5651 5651 5652 5654 5655 5657 5659 5660 5662 5665 5668 5671 5674 5676 5679 5683 5687 5691 5693 5695 5697 5700 5703 5705 5706 5708 5710 5711 5712 5714 5717 5719 5720 5723 5724 5725 5727 5729 5728 5729 5731 5734 5736 5737 5737 5738 5739 5741
5662 5661 5660 5659 5658 5656 5655 5653 5651 5648 5646 5643 5641 5639 5636 5634 5631 5629 5628 5627 5627 5628 5630 5632 5634 5635 5636 5637 5639 5640 5641 5641 5640 5640 5641 5642 5642 5644 5645 5646 5648 5649 5650 5652 5653 5655 5658 5660 5663 5666 5668 5670 5674 5678 5682 5685 5687 5690 5693 5695 5697 5699 5702 5703 5703 5705 5707 5709 5711 5713 5715 5716 5717 5719 5722 5723 5724 5726 5728 5729 5729 5731 5732 5733 5734
5658 5657 5656 5655 5654 5652 5651 5649 5647 5644 5642 5640 5638 5635 5633 5630 5628 5626 5624 5624 5624 5624 5625 5627 5628 5629 5630 5631 5632 5633 5634 5634 5633 5633 5634 5635 5636 5637 5638 5640 5641 5642 5644 5645 5647 5648 5650 5652 5655 5658 5659 5662 5666 5670 5674 5677 5679 5682 5685 5687 5689 5692 5694 5695 5696 5698 5700 5702 5704 5706 5708 5709 5711 5713 5715 5717 5718 5720 5722 5723 5724 5725 5727 5727 5727
5654 5653 5652 5651 5649 5648 5646 5644 5642 5640 5638 5636 5634 5632 5629 5627 5625 5623 5621 5621 5620 5620 5621 5621 5622 5623 5624 5625 5626 5626 5627 5626 5626 5627 5628 5629 5630 5632 5633 5634 5635 5636 5637 5639 5640 5641 5642 5644 5648 5649 5651 5655 5658 5661 5665 5669 5671 5673 5676 5678 5681 5683 5685 5687 5688 5691 5693 5694 5697 5699 5701 5704 5706 5708 5709 5711 5713 5714 5716 5717 5717 5719 5720 5721 5722
5650 5649 5648 5646 5645 5643 5641 5640 5638 5636 5634 5632 5630 5627 5625 5623 5621 5619 5618 5617 5616 5616 5616 5616 5617 5617 5618 5619 5619 5619 5619 5619 5620 5621 5622 5623 5624 5626 5627 5628 5629 5630 5631 5632 5633 5634 5635 5637 5640 5641 5644 5647 5649 5653 5657 5660 5663 5664 5666 5669 5672 5674 5677 5679 5681 5683 5685 5687 5689 5692 5694 5697 5700 5701 5703 5705 5707 5708 5709 5710 5711 5712 5713 5714 5715
5646 5645 5644 5642 5640 5639 5637 5635 5633 5631 5630 5627 5625 5623 5621 5619 5618 5616 5614 5613 5612 5611 5611 5611 5611 5612 5612 5612 5612 5612 5612 5613 5614 5615 5616 5617 5618 5619 5621 5622 5622 5623 5623 5624 5625 5627 5628 5630 5632 5634 5636 5638 5641 5645 5647 5650 5653 5655 5657 5660 5663 5666 5669 5671 5673 5676 5677 5679 5681 5685 5688 5690 5693 5696 5698 5699 5700 5700 5701 5703 5705 5705 5706 5707 5708
5642 5641 5639 5638 5636 5634 5632 5631 5629 5627 5625 5623 5621 5619 5617 5615 5614 5612 5611 5609 5608 5607 5606 5606 5605 5606 5606 5606 5606 5606 5606 5607 5607 5608 5609 5610 5611 5613 5614 5615 5615 5615 5615 5616 5617 5619 5621 5623 5625 5627 5628 5630 5634 5636 5638 5640 5643 5646 5649 5651 5655 5658 5660 5663 5665 5667 5670 5672 5674 5677 5681 5684 5686 5689 5691 5692 5692 5692 5694 5696 5698 5699 5699 5701 5701
5638 5636 5635 5633 5631 5630 5628 5627 5625 5623 5621 5619 5618 5615 5613 5611 5610 5608 5607 5605 5604 5602 5601 5601 5600 5600 5600 5600 5600 5600 5600 5600 5601 5602 5603 5604 5605 5606 5607 5608 5608 5608 5608 5609 5610 5611 5613 5615 5617 5620 5621 5623 5625 5627 5630 5631 5633 5637 5640 5643 5646 5649 5651 5654 5657 5658 5661 5664 5667 5670 5673 5676 5679 5681 5684 5685 5684 5685 5687 5689 5691 5691 5691 5692 5693
5633 5632 5630 5629 5627 5626 5624 5623 5621 5619 5617 5615 5614 5611 5609 5607 5606 5604 5602 5601 5599 5598 5597 5596 5595 5594 5594 5593 5594 5594 5594 5594 5595 5595 5596 5597 5599 5600 5601 5601 5601 5601 5601 5602 5602 5604 5606 5608 5610 5612 5614 5616 5617 5619 5622 5623 5625 5628 5631 5634 5637 5639 5642 5645 5647 5649 5652 5656 5659 5661 5664 5667 5670 5672 5676 5677 5677 5678 5680 5682 5684 5684 5684 5684 5686
5629 5628 5626 5624 5623 5622 5620 5618 5617 5615 5613 5612 5610 5607 5605 5603 5602 5600 5599 5597 5595 5593 5592 5591 5590 5589 5588 5587 5587 5587 5587 5588 5588 5589 5589 5591 5592 5594 5594 5595 5595 5595 5595 5595 5596 5597 5599 5601 5603 5605 5607 5609 5610 5612 5614 5615 5616 5619 5622 5625 5628 5630 5634 5637 5638 5640 5644 5647 5649 5652 5655 5658 5661 5664 5667 5669 5670 5671 5671 5674 5678 5678 5677 5677 5679
5625 5623 5622 5620 5619 5618 5616 5614 5612 5611 5609 5607 5606 5604 5602 5600 5598 5596 5595 5593 5591 5589 5588 5586 5585 5584 5583 5582 5581 5580 5580 5581 5581 5582 5582 5583 5585 5586 5587 5588 5589 5589 5589 5589 5590 5591 5592 5594 5596 5597 5600 5602 5603 5604 5606 5606 5608 5611 5613 5616 5619 5623 5627 5629 5629 5631 5635 5638 5641 5644 5646 5649 5652 5655 5658 5661 5663 5663 5663 5667 5670 5670 5669 5670 5673
5621 5619 5618 5616 5615 5613 5612 5610 5608 5607 5605 5603 5602 5600 5598 5596 5594 5592 5591 5589 5587 5585 5583 5582 5580 5579 5578 5577 5575 5574 5573 5573 5574 5575 5575 5576 5578 5579 5580 5582 5583 5583 5583 5584 5584 5585 5586 5588 5589 5591 5593 5594 5595 5596 5597 5598 5601 5603 5605 5608 5612 5616 5619 5619 5620 5623 5625 5629 5633 5635 5637 5640 5643 5646 5649 5652 5654 5655 5656 5659 5661 5662 5663 5665 5667
5617 5615 5614 5612 5611 5609 5608 5606 5604 5603 5601 5599 5598 5596 5594 5592 5590 5589 5587 5585 5583 5581 5579 5577 5576 5574 5573 5572 5570 5569 5568 5567 5567 5567 5568 5569 5570 5572 5573 5575 5576 5576 5577 5578 5579 5580 5580 5581 5582 5583 5584 5586 5587 5589 5590 5592 5594 5596 5598 5602 5606 5609 5609 5609 5611 5614 5616 5619 5623 5626 5629 5632 5634 5637 5641 5644 5646 5649 5650 5651 5653 5655 5657 5658 5660
5612 5611 5610 5608 5607 5605 5604 5602 5601 5599 5597 5596 5594 5592 5591 5589 5587 5585 5583 5581 5579 5577 5575 5573 5571 5569 5568 5566 5565 5563 5562 5561 5560 5560 5560 5561 5563 5564 5566 5567 5568 5570 5571 5572 5573 5574 5574 5575 5576 5576 5578 5580 5583 5584 5585 5587 5588 5590 5593 5597 5599 5599 5599 5600 5603 5606 5608 5610 5613 5617 5621 5624 5626 5630 5633 5635 5639 5641 5642 5644 5646 5648 5649 5650 5651
5608 5607 5606 5605 5603 5602 5600 5599 5597 5595 5594 5592 5590 5589 5587 5585 5583 5581 5579 5577 5575 5573 5571 5569 5567 5565 5563 5561 5559 5558 5556 5555 5554 5553 5553 5554 5555 5557 5558 5559 5562 5564 5565 5566 5566 5567 5568 5569 5570 5571 5574 5576 5577 5578 5579 5580 5581 5584 5587 5589 5590 5590 5591 5592 5595 5598 5601 5603 5604 5608 5612 5615 5618 5622 5625 5627 5630 5632 5633 5635 5638 5639 5641 5642 5642
5604 5603 5602 5601 5600 5598 5597 5595 5594 5592 5590 5589 5587 5585 5583 5581 5579 5577 5575 5574 5572 5569 5567 5565 5562 5560 5558 5556 5554 5552 5550 5549 5547 5546 5546 5546 5547 5548 5550 5552 5554 5557 5558 5558 5560 5561 5563 5564 5565 5566 5567 5568 5569 5571 5572 5573 5575 5577 5579 5580 5581 5582 5582 5585 5587 5590 5593 5595 5596 5599 5604 5606 5609 5614 5617 5619 5621 5622 5625 5627 5629 5631 5633 5634 5635
5601 5600 5599 5598 5596 5595 5594 5592 5590 5589 5587 5586 5584 5582 5580 5578 5576 5574 5572 5570 5568 5566 5563 5561 5558 5556 5553 5550 5548 5546 5544 5542 5540 5539 5539 5539 5539 5541 5542 5544 5547 5549 5550 5552 5554 5555 5557 5558 5559 5560 5560 5561 5563 5564 5565 5566 5568 5570 5571 5572 5574 5574 5574 5577 5580 5582 5584 5587 5589 5592 5595 5597 5600 5604 5608 5610 5612 5614 5616 5619 5622 5624 5626 5628 5628
5597 5596 5596 5595 5593 5592 5591 5589 5587 5586 5584 5583 5581 5579 5577 5575 5572 5570 5568 5566 5564 5562 5559 5557 5554 5551 5548 5545 5543 5541 5539 5537 5535 5534 5533 5533 5533 5534 5535 5537 5540 5542 5544 5546 5547 5549 5550 5551 5552 5554 5554 5555 5557 5557 5558 5560 5561 5562 5563 5564 5565 5566 5567 5569 5571 5573 5576 5579 5582 5584 5587 5589 5592 5595 5599 5602 5603 5605 5608 5612 5615 5616 5618 5620 5620
5594 5593 5592 5591 5590 5589 5587 5586 5584 5583 5581 5580 5578 5576 5574 5572 5569 5567 5565 5563 5561 5558 5556 5553 5550 5547 5545 5542 5540 5537 5535 5533 5531 5529 5528 5528 5528 5529 5530 5531 5533 5535 5537 5539 5541 5543 5544 5546 5547 5547 5548 5548 5549 5550 5551 5552 5553 5554 5555 5556 5557 5558 5559 5561 5562 5564 5567 5570 5573 5576 5578 5581 5584 5587 5590 5593 5595 5598 5601 5604 5606 5608 5611 5612 5612
5590 5589 5589 5588 5587 5586 5584 5583 5581 5580 5578 5577 5575 5573 5571 5569 5567 5565 5562 5560 5557 5555 5552 5549 5546 5544 5542 5540 5537 5535 5532 5530 5528 5526 5525 5524 5524 5525 5525 5526 5528 5530 5532 5534 5536 5537 5539 5539 5540 5540 5541 5541 5541 5542 5542 5543 5544 5545 5545 5546 5547 5548 5550 5551 5553 5555 5558 5561 5564 5567 5570 5574 5576 5579 5582 5584 5587 5591 5594 5596 5599 5602 5604 5605 5605
5587 5586 5586 5585 5584 5583 5582 5580 5579 5577 5576 5574 5573 5571 5569 5567 5565 5563 5560 5558 5555 5552 5550 5547 5543 5541 5540 5538 5535 5533 5530 5528 5526 5524 5523 5522 5522 5522 5522 5523 5524 5526 5527 5529 5530 5532 5533 5533 5533 5534 5534 5533 5533 5534 5534 5534 5534 5534 5535 5535 5536 5537 5539 5541 5542 5545 5548 5552 5555 5559 5562 5566 5568 5571 5574 5577 5580 5583 5585 5588 5591 5593 5594 5597 5599
5584 5583 5582 5582 5581 5580 5579 5577 5576 5575 5573 5572 5570 5569 5567 5565 5563 5560 5558 5556 5554 5551 5548 5545 5542 5539 5538 5536 5534 5531 5528 5526 5524 5522 5521 5521 5521 5521 5521 5521 5521 5522 5523 5524 5526 5527 5527 5528 5528 5528 5528 5527 5527 5526 5526 5526 5525 5525 5525 5524 5524 5525 5527 5529 5531 5534 5538 5542 5546 5550 5554 5557 5560 5564 5567 5570 5573 5575 5577 5579 5582 5584 5587 5591 5592
5581 5580 5579 5578 5578 5577 5576 5575 5574 5572 5571 5569 5568 5566 5565 5563 5560 5558 5556 5554 5552 5549 5546 5544 5541 5539 5536 5534 5532 5530 5527 5524 5522 5521 5520 5519 5519 5519 5519 5519 5519 5520 5520 5521 5522 5524 5524 5525 5525 5524 5523 5521 5520 5519 5518 5518 5517 5517 5516 5515 5515 5515 5516 5518 5520 5523 5527 5532 5537 5541 5545 5549 5553 5557 5560 5563 5566 5568 5570 5571 5574 5578 5581 5583 5583
5578 5577 5576 5576 5575 5574 5573 5572 5571 5570 5569 5567 5566 5564 5562 5561 5559 5557 5554 5552 5550 5547 5544 5542 5540 5538 5535 5533 5531 5528 5526 5523 5521 5520 5519 5518 5519 5519 5518 5518 5518 5518 5519 5520 5521 5522 5522 5523 5523 5522 5519 5516 5514 5513 5512 5511 5510 5509 5508 5506 5506 5506 5507 5509 5512 5515 5519 5524 5529 5533 5537 5542 5546 5550 5553 5556 5559 5561 5562 5564 5567 5570 5572 5573 5573
5575 5574 5573 5573 5572 5571 5570 5569 5568 5567 5566 5565 5564 5562 5560 5559 5557 5555 5553 5551 5548 5546 5543 5541 5538 5536 5534 5532 5529 5527 5525 5522 5521 5520 5519 5519 5518 5518 5518 5518 5518 5517 5518 5519 5520 5520 5520 5520 5520 5519 5515 5511 5509 5508 5506 5505 5504 5503 5500 5498 5498 5498 5500 5503 5506 5510 5515 5519 5523 5526 5531 5535 5539 5543 5546 5549 5552 5553 5555 5558 5560 5562 5563 5564 5565
5572 5571 5571 5570 5569 5569 5568 5567 5566 5565 5563 5562 5561 5560 5558 5557 5555 5553 5551 5549 5547 5545 5543 5540 5537 5535 5533 5531 5528 5526 5524 5522 5520 5519 5519 5519 5518 5518 5518 5518 5517 5517 5517 5518 5518 5518 5518 5517 5517 5516 5512 5508 5505 5504 5503 5501 5500 5498 5495 5494 5493 5494 5496 5499 5503 5506 5509 5513 5516 5521 5525 5529 5533 5536 5539 5542 5545 5546 5547 5550 5552 5554 5556 5557 5557
5569 5569 5568 5567 5567 5566 5565 5564 5563 5562 5561 5560 5559 5557 5556 5555 5553 5552 5550 5548 5546 5544 5542 5540 5537 5535 5532 5530 5528 5525 5523 5522 5520 5519 5518 5518 5518 5518 5518 5517 5516 5516 5516 5516 5516 5516 5515 5515 5514 5513 5511 5507 5504 5502 5500 5498 5497 5496 5494 5493 5492 5493 5495 5497 5500 5501 5504 5506 5510 5514 5518 5523 5527 5531 5533 5535 5536 5538 5540 5542 5545 5547 5549 5549 5549
5567 5566 5565 5565 5564 5563 5562 5561 5560 5559 5558 5557 5556 5555 5554 5552 5551 5550 5548 5546 5545 5543 5542 5540 5537 5535 5532 5529 5527 5525 5523 5521 5519 5518 5517 5517 5516 5516 5516 5516 5515 5515 5515 5515 5515 5514 5514 5513 5512 5511 5509 5508 5505 5503 5500 5498 5496 5494 5493 5493 5493 5494 5495 5496 5497 5499 5501 5503 5505 5508 5513 5517 5522 5526 5528 5527 5526 5528 5532 5536 5539 5540 5542 5542 5542
5564 5563 5563 5562 5562 5561 5560 5559 5558 5557 5556 5555 5554 5553 5552 5550 5549 5547 5546 5545 5543 5542 5540 5539 5537 5535 5533 5530 5527 5524 5522 5520 5519 5517 5516 5516 5515 5515 5515 5514 5514 5514 5514 5514 5513 5512 5511 5511 5510 5509 5507 5507 5506 5504 5502 5500 5498 5495 5493 5493 5493 5494 5494 5494 5495 5497 5499 5500 5502 5505 5509 5513 5517 5521 5522 5520 5518 5519 5523 5528 5531 5533 5534 5535 5535
5561 5561 5560 5559 5559 5558 5557 5556 5555 5554 5554 5553 5552 5551 5550 5548 5547 5546 5544 5543 5542 5540 5539 5538 5537 5535 5533 5531 5528 5525 5523 5521 5519 5518 5516 5515 5515 5514 5514 5513 5513 5513 5513 5512 5511 5510 5509 5509 5508 5507 5506 5505 5504 5503 5501 5500 5499 5497 5495 5493 5494 5494 5494 5493 5494 5496 5497 5498 5499 5501 5503 5507 5511 5513 5514 5514 5513 5514 5517 5520 5523 5526 5527 5528 5529
5559 5558 5558 5557 5556 5556 5555 5554 5553 5552 5551 5550 5549 5549 5548 5547 5546 5544 5543 5542 5541 5540 5539 5537 5536 5535 5533 5531 5529 5527 5525 5523 5521 5519 5517 5516 5515 5515 5514 5514 5513 5513 5512 5511 5510 5509 5508 5507 5506 5506 5505 5504 5503 5502 5501 5499 5498 5497 5496 5495 5495 5495 5495 5494 5495 5496 5497 5497 5498 5498 5499 5502 5505 5507 5509 5509 5510 5511 5513 5515 5517 5519 5521 5522 5523
5556 5555 5555 5554 5554 5553 5553 5552 5551 5550 5549 5548 5547 5546 5546 5545 5544 5543 5542 5541 5540 5539 5538 5536 5535 5534 5533 5532 5530 5528 5526 5524 5522 5520 5518 5517 5517 5516 5515 5514 5513 5512 5511 5510 5509 5508 5507 5506 5505 5504 5504 5503 5502 5501 5500 5499 5497 5496 5496 5495 5494 5494 5494 5495 5495 5495 5496 5497 5498 5498 5499 5500 5503 5504 5505 5506 5507 5508 5509 5511 5512 5514 5515 5517 5518
5553 5553 5552 5551 5551 5551 5550 5549 5549 5548 5547 5546 5545 5544 5543 5543 5542 5541 5540 5540 5538 5537 5536 5535 5534 5533 5532 5531 5530 5528 5526 5525 5523 5521 5520 5519 5518 5516 5515 5514 5513 5512 5511 5510 5509 5508 5506 5505 5504 5503 5502 5502 5501 5500 5499 5497 5496 5495 5494 5494 5493 5493 5493 5494 5495 5495 5495 5496 5497 5497 5498 5499 5500 5502 5502 5503 5504 5505 5506 5507 5508 5509 5510 5511 5511
5550 5550 5549 5549 5548 5548 5548 5547 5546 5545 5544 5543 5543 5542 5541 5540 5540 5539 5539 5538 5537 5536 5535 5534 5533 5532 5531 5530 5529 5528 5526 5525 5524 5522 5521 5520 5518 5517 5516 5514 5513 5512 5511 5510 5508 5507 5505 5504 5503 5501 5500 5500 5499 5498 5497 5496 5495 5494 5493 5493 5492 5492 5493 5493 5493 5494 5494 5495 5496 5496 5497 5498 5499 5500 5501 5501 5502 5502 5503 5503 5504 5504 5505 5505 5505
5547 5547 5547 5546 5546 5545 5545 5544 5544 5543 5542 5541 5540 5540 5539 5538 5537 5537 5536 5536 5535 5534 5533 5532 5531 5530 5530 5528 5527 5527 5526 5525 5524 5522 5521 5520 5519 5517 5516 5514 5513 5511 5510 5509 5508 5506 5505 5504 5502 5501 5499 5498 5497 5497 5496 5496 5495 5494 5494 5493 5492 5492 5492 5492 5492 5492 5492 5493 5493 5494 5495 5496 5497 5498 5498 5498 5499 5499 5499 5500 5500 5500 5501 5501 5501
5545 5544 5544 5543 5543 5542 5542 5542 5541 5540 5540 5539 5538 5537 5537 5536 5535 5534 5534 5533 5532 5531 5531 5530 5529 5528 5528 5527 5526 5525 5524 5524 5523 5522 5521 5520 5518 5517 5516 5514 5513 5511 5510 5508 5507 5506 5505 5504 5502 5501 5500 5498 5497 5496 5496 5495 5495 5494 5493 5493 5492 5492 5491 5491 5491 5491 5491 5491 5492 5492 5493 5494 5495 5495 5496 5496 5496 5496 5496 5496 5496 5497 5497 5496 5496
5542 5541 5541 5540 5540 5539 5539 5538 5538 5537 5537 5536 5536 5535 5534 5533 5533 5532 5531 5530 5530 5529 5528 5527 5527 5526 5525 5525 5524 5523 5522 5521 5521 5520 5520 5519 5518 5516 5515 5514 5513 5512 5510 5509 5507 5506 5505 5503 5502 5501 5500 5499 5497 5496 5496 5495 5495 5494 5493 5492 5492 5491 5491 5490 5490 5490 5490 5490 5491 5491 5491 5492 5492 5492 5492 5493 5493 5493 5493 5493 5493 5493 5493 5492 5491
5539 5538 5537 5537 5537 5536 5536 5535 5535 5534 5534 5533 5533 5532 5531 5531 5530 5529 5528 5528 5527 5526 5525 5525 5524 5523 5523 5522 5521 5521 5520 5519 5518 5518 5517 5516 5516 5515 5514 5513 5512 5511 5510 5508 5507 5506 5505 5503 5502 5501 5500 5499 5498 5497 5496 5495 5494 5494 5493 5493 5492 5492 5491 5491 5491 5490 5490 5490 5490 5490 5490 5490 5490 5490 5490 5490 5490 5490 5490 5490 5490 5489 5489 5488 5487
5536 5535 5534 5534 5533 5533 5532 5532 5531 5531 5531 5530 5530 5529 5529 5528 5527 5526 5526 5525 5524 5524 5523 5522 5521 5521 5520 5519 5519 5518 5517 5517 5516 5515 5514 5514 5513 5512 5512 5511 5510 5509 5508 5507 5506 5505 5504 5503 5502 5501 5500 5499 5498 5497 5496 5495 5494 5494 5493 5493 5492 5492 5492 5491 5491 5491 5490 5490 5489 5489 5489 5488 5488 5488 5487 5487 5487 5486 5486 5486 5485 5484 5484 5483 5482
5533 5532 5531 5531 5530 5530 5529 5529 5528 5528 5527 5527 5526 5526 5525 5525 5524 5524 5523 5522 5522 5521 5520 5519 5519 5518 5517 5516 5516 5515 5515 5514 5514 5513 5512 5511 5510 5510 5509 5509 5508 5507 5506 5505 5504 5503 5502 5501 5501 5500 5499 5498 5497 5497 5496 5495 5494 5493 5493 5492 5492 5491 5491 5490 5490 5489 5489 5488 5487 5487 5486 5486 5485 5484 5484 5483 5483 5482 5481 5481 5480 5479 5477 5476 5475
5530 5529 5528 5528 5527 5527 5526 5526 5525 5525 5524 5524 5523 5523 5522 5522 5521 5520 5520 5519 5519 5518 5517 5517 5516 5515 5514 5514 5513 5512 5512 5511 5511 5510 5510 5509 5508 5507 5507 5506 5505 5505 5504 5503 5502 5501 5500 5499 5499 5498 5497 5497 5496 5495 5495 5494 5493 5492 5492 5491 5490 5490 5489 5488 5488 5487 5486 5485 5485 5484 5483 5482 5482 5481 5480 5479 5478 5477 5476 5475 5474 5472 5471 5470 5468
5526 5525 5525 5524 5524 5523 5523 5522 5522 5521 5521 5520 5520 5519 5519 5518 5518 5517 5517 5516 5516 5515 5514 5514 5513 5513 5512 5511 5510 5510 5509 5508 5508 5508 5507 5506 5506 5505 5504 5504 5503 5502 5501 5501 5500 5499 5499 5498 5497 5496 5495 5495 5494 5493 5493 5492 5491 5490 5490 5489 5488 5487 5487 5486 5485 5484 5484 5483 5482 5481 5480 5479 5478 5477 5476 5475 5473 5472 5470 5469 5467 5466 5464 5462 5460
5522 5522 5521 5521 5520 5520 5519 5519 5518 5518 5517 5517 5516 5516 5515 5515 5514 5514 5513 5513 5512 5512 5511 5511 5510 5510 5509 5508 5508 5507 5506 5506 5505 5504 5504 5503 5503 5502 5501 5501 5500 5499 5499 5498 5497 5496 5496 5495 5494 5494 5493 5492 5491 5491 5490 5489 5489 5488 5487 5486 5485 5485 5484 5483 5482 5481 5480 5479 5478 5477 5476 5474 5473 5472 5470 5469 5467 5466 5464 5462 5460 5459 5457 5455 5453
5518 5518 5517 5517 5516 5516 5516 5515 5515 5514 5514 5513 5513 5512 5512 5511 5511 5510 5510 5509 5509 5508 5508 5507 5506 5506 5505 5505 5504 5504 5503 5502 5502 5501 5500 5500 5499 5499 5498 5497 5497 5496 5496 5495 5494 5493 5492 5492 5491 5490 5490 5489 5488 5488 5487 5486 5485 5484 5484 5483 5482 5481 5480 5479 5478 5477 5475 5474 5473 5471 5470 5468 5467 5465 5464 5462 5460 5459 5457 5455 5453 5452 5450 5448 5446